736  
ASUS45 KABQ 201710  
RWRNM  
NEW MEXICO REGIONAL WEATHER ROUNDUP  
NATIONAL WEATHER SERVICE ALBUQUERQUE NM  
1000 AM MST WED FEB 20 2019  
 
NOTE: "FAIR" MEANS FEW OR NO CLOUDS BELOW 12,000 FEET AGL WITH NO  
SIGNIFICANT WEATHER OR S TO VISION.  
 
THIS PRODUCT IS RELEASED AS TWO VERSIONS. ONE VERSION NEAR  
THE TOP OF THE HOUR CONTAINING PRELIMINARY DATA FROM ALBUQUERQUE  
AND OTHER STATIONS. A FINAL VERSION WITH ADDITIONAL DATA IS  
ISSUED ABOUT 10 MINUTES AFTER THE HOUR.  
 
NMZ501-503-504-510>518-201800-  
NORTHWEST PLATEAU/NORTHCENTRAL MOUNTAINS  
 
CITY SKY/WX TMP DP RH WIND PRES REMARKS
 
FARMINGTON FAIR 18 10 71 E8 29.87S WCI 8  
LOS ALAMOS FAIR 19 7 59 CALM 29.81F  
SANTA FE FAIR 25 10 53 W14G21 29.84F WCI 13  
TAOS FAIR 20 7 57 SW15 29.82S WCI 6  
ANGEL FIRE N/A 11 3 68 W35G49 29.68R HAZE WCI -12  
 

 
NMZ402-403-502-505>509-201800-  
WESTCENTRAL MOUNTAINS/SOUTHWEST MOUNTAINS  
 
CITY SKY/WX TMP DP RH WIND PRES REMARKS
 
GALLUP CLOUDY 22 14 71 SW12 29.85F WCI 10  
GRANTS FAIR 23 9 55 N5 29.87F WCI 16  
SILVER CITY FAIR 32 15 49 W10 29.96S WCI 23  
 

 
NMZ407-409-411-412-201800-  
SOUTHERN DESERTS  
 
CITY SKY/WX TMP DP RH WIND PRES REMARKS
 
DEMING FAIR 39 14 36 W10 29.99F WCI 32  
LAS CRUCES FAIR 40 14 34 W13 29.99F WCI 32  
ALAMOGORDO FAIR 37 7 28 CALM 29.98F  
T OR C FAIR 36 10 34 CALM 29.93F  
 

 
NMZ519>523-201800-  
CENTRAL VALLEYS/CENTRAL HIGHLANDS  
 
CITY SKY/WX TMP DP RH WIND PRES REMARKS
 
ALBUQUERQUE FAIR 30 10 43 W9 29.91F WCI 22  
DOUBLE EAGLE MOSUNNY 27 12 54 W8 29.90F WCI 18  
MORIARTY ARPT CLOUDY 28 15 56 W14 29.86F WCI 17  
CLINES CORNERS FAIR 21 10 62 W38G49 29.74S WCI 1  
BELEN FAIR 32 13 45 W15 29.93F WCI 21  
SOCORRO FAIR 32 16 51 SE3 29.94F  
 

 
NMZ524>526-539-540-201800-  
SOUTHCENTRAL MOUNTAINS  
 
CITY SKY/WX TMP DP RH WIND PRES REMARKS
 
RUIDOSO NOT AVBL  
 

 
NMZ527>531-201800-  
NORTHEAST HIGHLANDS/NORTHEAST PLAINS  
 
CITY SKY/WX TMP DP RH WIND PRES REMARKS
 
LAS VEGAS FAIR 27 6 41 SE7 29.65S WCI 19  
RATON FAIR 20 6 55 NE5 29.64R WCI 13  
CLAYTON FAIR 28 7 41 CALM 29.73R  
 

 
NMZ532>537-201800-  
EASTCENTRAL PLAINS  
 
CITY SKY/WX TMP DP RH WIND PRES REMARKS
 
SANTA ROSA FAIR 35 8 32 W30G39 29.80S WCI 21  
TUCUMCARI FAIR 40 8 26 W26G39 29.77S WCI 29  
CANNON AFB FAIR 34 19 52 W26G33 29.85R WCI 21  
CLOVIS AIRPORT FAIR 36 21 54 W28G35 29.85F WCI 23  
 

 
NMZ028-029-538-201800-  
SOUTHEAST PLAINS  
 
CITY SKY/WX TMP DP RH WIND PRES REMARKS
 
ROSWELL FAIR 40 14 34 VRB3 29.89F  
ARTESIA FAIR 43 5 21 S13 29.91F  
CARLSBAD FAIR 46 10 23 S9 29.91S  
HOBBS SUNNY 45 3 18 SW14 29.93F  
 

 
 
 
CLICK HERE TO GO TO PREVIOUS BULLETINS.

The Nexlab NM Page Main Text Page